Regional Weather Roundup
Issued by NWS Albany, NY

Home | Current Version | Previous Version | Text Only | Print | Product List | Glossary On
Versions: 1 2 3 4 5 6 7 8 9 10 11 12 13 14 15 16 17 18 19 20 21 22 23 24 25 26 27 28 29 30 31 32 33 34 35 36 37 38 39 40 41 42 43 44 45 46 47 48 49 50
000
ASUS41 KALY 270610
RWRALY

NEW YORK STATE HOURLY WEATHER ROUNDUP
NATIONAL WEATHER SERVICE ALBANY NY
200 AM EDT WED JUL 27 2016

NOTE: "FAIR" INDICATES FEW OR NO CLOUDS BELOW 12,000 FEET WITH NO
SIGNIFICANT WEATHER AND/OR NO OBSTRUCTIONS TO VISIBILITY.

NYZ032-033-038>043-046>054-057>066-NYZ062>081-082-084-270700-
EAST


CITY           SKY/WX    TMP DP  RH WIND       PRES   REMARKS
ALBANY         CLEAR     67  59  75 SW3       29.95R
GLENS FALLS    CLEAR     63  60  90 CALM      29.94R
POUGHKEEPSIE   PTCLDY    67  63  87 CALM      29.94S
NEWBURGH       PTCLDY    66  64  94 CALM      29.97
MONTGOMERY     CLEAR     65  63  93 CALM      29.96S
WHITE PLAINS   MOCLDY    71  62  73 NW6       29.94S
ISLIP          PTCLDY    73  65  75 NW5       29.92S
NEW YORK CITY  MOCLDY    81  63  54 N7        29.92R
CENTRAL PARK   PTCLDY    80  60  50 VRB5      29.96R
$$

NYZ005>009-017-018-044>046-055-056-270700-
CENTRAL


CITY           SKY/WX    TMP DP  RH WIND       PRES   REMARKS
FULTON         CLEAR     63  59  87 CALM      29.96F
SYRACUSE       PTCLDY    66  61  84 CALM      29.96F
ROME           CLEAR     61  60  97 CALM      29.98S
ELMIRA         CLEAR     64  59  83 W5        30.00S
BINGHAMTON     CLEAR     66  60  81 CALM      30.01F
MONTICELLO     CLEAR     59  57  94 W3        30.02S
$$

NYZ026>034-041>043-087-270700-
NORTH


CITY           SKY/WX    TMP DP  RH WIND       PRES   REMARKS
WATERTOWN      PTCLDY    67  61  81 S6        29.93F
FORT DRUM      NOT AVBL
MASSENA        CLEAR     66  60  81 SW6       29.91S
SARANAC LAKE   CLEAR     54  52  93 CALM      29.97F
PLATTSBURGH    CLEAR     63  61  93 CALM      29.89F
$$

NYZ001>004-010>016-019>021-085-270700-
WEST


CITY           SKY/WX    TMP DP  RH WIND       PRES   REMARKS
NIAGARA FALLS  CLEAR     70  65  84 SW3       29.97S
BUFFALO        CLEAR     69  64  84 S7        29.98F
DUNKIRK        CLEAR     67  60  78 SW5       30.00S
JAMESTOWN      CLEAR     63  57  82 CALM      30.05S
WELLSVILLE     CLEAR     63  57  81 CALM      30.07S
ROCHESTER      PTCLDY    67  63  87 SW6       29.98S
PENN YAN       CLEAR     66  62  87 SW3       30.00S
$$

             KEY
       WCI = WIND CHILL INDEX
       VSB = VISIBILITY
       HX  = HEAT INDEX
$$



USA.gov is the U.S. government's official web portal to all federal, state and local government web resources and services.